Regional Weather Roundup
Issued by NWS Cleveland, OH

Home | Current Version | Previous Version | Graphics & Text | Print | Product List | Glossary On
Versions: 1 2 3 4 5 6 7 8 9 10 11 12 13 14 15 16 17 18 19 20 21 22 23 24 25 26 27 28 29 30 31 32 33 34 35 36 37 38 39 40 41 42 43 44 45 46 47 48 49 50
000
ASUS41 KCLE 210412
RWRCLE
OHIO REGIONAL WEATHER ROUNDUP
NATIONAL WEATHER SERVICE WILMINGTON, OH
1200 AM EDT SAT OCT 21 2017

NOTE: "FAIR" INDICATES FEW OR NO CLOUDS BELOW 12,000 FEET WITH NO
SIGNIFICANT WEATHER AND/OR OBSTRUCTIONS TO VISIBILITY.

OHZ001>008-015>018-024>027-034-035-043-044-210500-
   NORTHWEST OHIO

CITY           SKY/WX    TMP DP  RH WIND       PRES   REMARKS
DEFIANCE       FAIR      60  50  69 SW7       30.16S
FINDLAY        FAIR      57  44  62 S6        30.18R
TOLEDO EXPRESS FAIR      59  50  72 S5        30.16R
TOLEDO EXEC    FAIR      57  44  62 S8        30.18R
LIMA           FAIR      56  50  80 S7        30.18S
$$

OHZ009>014-019>023-028>033-038-089-210500-
   NORTHEAST OHIO

CITY           SKY/WX    TMP DP  RH WIND       PRES   REMARKS
CLE-HOPKINS    FAIR      55  40  56 S7        30.22S
CLE-LAKEFRONT  FAIR      60  40  47 SE12      30.18S
CUY CO. ARPT   NOT AVBL
LORAIN-ELYRIA  FAIR      50  38  63 S3        30.21R
ASHTABULA      FAIR      53  39  59 S7        30.23R
AKRON-CANTON   FAIR      54  41  61 S7        30.23S
WOOSTER        FAIR      41  39  93 CALM      30.23S
MANSFIELD      FAIR      57  40  52 S10       30.22R
YOUNGSTOWN     FAIR      57  37  47 S6        30.24S
$$

OHZ042-051>053-060>062-070>072-077>081-210500-
  SOUTHWEST OHIO

CITY           SKY/WX    TMP DP  RH WIND       PRES   REMARKS
CINC-COVINGTON FAIR      60  53  77 CALM      30.19F
CINC-LUNKEN    FOG       50  50 100 CALM      30.21F VSB 3/4
HAMILTON       FAIR      49  48  97 CALM      30.20F
DAYTON         FAIR      60  54  80 S9        30.20F
WRIGHT-PAT AFB PTCLDY    56  52  86 CALM      30.20S
DAYTON GENERAL FAIR      60  51  72 S5        30.20S
WILMINGTON     FAIR      55  50  83 S3        30.22R
$$

OHZ036-037-039>041-045>050-054>059-063>069-073>076-082>088-210500-
  CENTRAL AND SOUTHEAST OHIO

CITY           SKY/WX    TMP DP  RH WIND       PRES   REMARKS
COLUMBUS       FAIR      58  43  57 SE5       30.21S
OSU AIRPORT    FAIR      56  43  61 CALM      30.21S
BOLTON FIELD   FAIR      53  44  71 S5        30.22S
RICKENBACK AFB FAIR      52  43  71 CALM      30.22R
NEWARK         FAIR      46  42  86 CALM      30.23R
MARION         FAIR      55  39  54 S9        30.21R
LANCASTER      FAIR      45  43  93 CALM      30.23S
ZANESVILLE     FAIR      48  44  86 CALM      30.24R
NEW PHILLY     FAIR      47  43  86 CALM      30.25S
$$




USA.gov is the U.S. government's official web portal to all federal, state and local government web resources and services.